sat.trackr.live / text

‹ back to catalog

STARLINK-32278

NORAD 60356 · 2024-138B

PAYLOAD ACTIVE UNKNOWN

§ Identity

Operator
Country
US
Launch date
2024-08-04
Launch site
AFWTR
Launch vehicle
Mass (kg)
RCS (m²)

Purposes: comms

External: N2YO · Heavens-Above · Gunter

§ Orbital elements

Epoch: 2026-09-21T20:55:16.647744Z

Period
93.85 min
Inclination
53.1599°
Eccentricity
0.0001316
Mean motion
15.34391579 rev/d
Perigee alt
461.8 km
Apogee alt
463.6 km
Semi-major
6,840.9 km
B*
4.5979e-6
RAAN
116.9523°
Arg perigee
88.5389°
Mean anomaly
271.5765°
Rev number
12,068

§ Raw data

STARLINK-322781 60356U 24138B   26264.87172046 -.00000221  00000+0  45979-5 0  99972 60356  53.1599 116.9523 0001316  88.5389 271.5765 15.34391579120680

JSON: /api/v1/satellites/60356 · /tle

For live sub-satellite position, see the globe view (requires WebGL).

§ Visibility from observer

Set your observer location to see the next 7 days of passes ≥ 10°. The values pass through the URL so the page stays shareable.

No JS? Fill the form by hand. The geolocation button needs JavaScript.